Regional Weather Roundup
Issued by NWS New Orleans/Baton Rouge, LA

Home | Current Version | Previous Version | Graphics & Text | Print | Product List | Glossary On
Versions: 1 2 3 4 5 6 7 8 9 10 11 12 13 14 15 16 17 18 19 20 21 22 23 24 25 26 27 28 29 30 31 32 33 34 35 36 37 38 39 40 41 42 43 44 45 46 47 48 49 50
028
ASUS44 KLIX 261505
RWRLIX
NEW ORLEANS REGIONAL WEATHER ROUNDUP
NATIONAL WEATHER SERVICE NEW ORLEANS LA
900 AM CST MON JAN 26 2015

NOTE: "FAIR" INDICATES FEW OR NO CLOUDS BELOW 12,000 FEET WITH NO
      SIGNIFICANT WEATHER AND/OR OBSTRUCTIONS TO VISIBILITY.
      SKY/WX - SKY CONDITION AND SIGNIFICANT WEATHER.
      TMP - AIR TEMPERATURE.     DP    - DEWPOINT TEMPERATURE.
      RH  - RELATIVE HUMIDITY.   PRES  - PRESSURE.
      HI  - HEAT INDEX.          WCI   - WIND CHILL INDEX.

*  THESE STATIONS ARE NOT NWS OR FAA STATIONS AND ARE NOT UNDER
   NWS QUALITY CONTROL.

LAZ038-040-048-061>063-065>067-069-261600-
SOUTHEAST LOUISIANA

CITY           SKY/WX    TMP DP  RH WIND       PRES   REMARKS
N.O. AUDUBON   NOT AVBL
N.O. INTL ARPT MOSUNNY   51  35  54 NW13      30.15R
N.O. LAKEFRONT SUNNY     52  37  56 NW21      30.15R
N.O. DOWNTOWN*   N/A     50  34  53 NW9G17    30.15R
SLIDELL        SUNNY    N/A N/A N/A NW10G21   30.12R
BATON ROUGE    SUNNY     50  33  52 N14G21    30.17R
BOOTHVILLE     SUNNY     51  38  60 N14G21    30.14R
BELLE CHASSE   SUNNY     53  33  46 N8G21     30.13R
BOGALUSA*        N/A     50  37  59 N10       30.14R
GALLIANO*      SUNNY     53  38  55 MISG      30.14S
NEW ROADS*       N/A     48  34  58 NW15      30.19R
GONZALES*        N/A     51  35  53 N12G18    30.15S
HAMMOND*       SUNNY     50  34  53 N14G21    30.16R
HOUMA*         NOT AVBL
PORT FOURCHON* SUNNY     54  36  50 NW10      30.18R

$$

MSZ070-080>082-261600-
SOUTHERN MISSISSIPPI

CITY           SKY/WX    TMP DP  RH WIND       PRES   REMARKS
MCCOMB         SUNNY     47  34  60 NW14G23   30.14R
GULFPORT       SUNNY     49  36  61 NW13      30.09R
BILOXI         SUNNY     49  37  63 N12       30.09R
PASCAGOULA     SUNNY     50  35  56 N15G25    30.07R
STENNIS ARPT*  SUNNY     48  32  53 N14G21    30.11R

$$

COASTAL OBSERVATIONS
LAKE AND NEARSHORE STATIONS

STATION/POSITION TIME  TEMP    WIND        PRES    WAVE
                       AIR SEA DIR/SP/G            HT/PER
                 (UTC) (F)     (DEG/KT/KT) (MB)    (FT/S)
PASCAGOULA       1500   49     330/  8/ 13 1017.7
WAVELAND YACHT   1500   48     340/ 15/ 20 1018.5
GRAND ISLE       1500   52 56  330/ 12/ 17 1020.8
SOUTHWEST PASS   1500   53 46   10/ 11/ 12 1020.5
NEW CANAL        1500   50 51  300/  3/ 13 1021.2
SHELL BEACH      1500   49 52  330/ 17/ 22 1020.3

OFFSHORE STATIONS

STATION/POSITION TIME  TEMP    WIND        PRES    WAVE
                       AIR SEA DIR/SP/G            HT/PER
                 (UTC) (F)     (DEG/KT/KT) (MB)    (FT/S)
64 S DAUPHIN ISL 1356   54 70  330/ 21/ 27 1018.6    7/ 6

$$




USA.gov is the U.S. government's official web portal to all federal, state and local government web resources and services.